Tracking 19485 objects as of 21-Jan-2019
HD Live streaming from Space Station
objects crossing your sky now

LEMUR 2 TACHIKOMA

Track LEMUR 2 TACHIKOMA now!
10-day predictions
LEMUR 2 TACHIKOMA is classified as:


NORAD ID: 41998
Int'l Code: 2017-008BC
Perigee: 495.6 km
Apogee: 506.2 km
Inclination: 97.4 °
Period: 94.5 minutes
Semi major axis: 6871 km
RCS: Unknown
Launch date: February 15, 2017
Source: United States (US)
Launch site: SRIHARIKOTA (SRI)
aabbcc
Your satellite tracking list
Your tracking list is empty




NASA's NSSDC Master Catalog

Two Line Element Set (TLE):
1 41998U 17008BC  19020.84763797 +.00000791 +00000-0 +35590-4 0  9993
2 41998 097.4228 088.5003 0007694 336.6612 023.4275 15.23998343106470
Source of the keplerian elements: AFSPC